カタログに戻る

COSMOS 1375 DEB

運用中LEO
NORAD 17795·DEBRIS·🇷🇺 Russia

打ち上げ Jun 6, 1982 から Plesetsk Cosmodrome

Loading…

次のパス (今後24時間)

TLE

最新Source: Space-Track

元期: Sep 13, 2026, 21:50 UTC

1 17795U 82055AM  26256.91001707 -.00000098  00000-0 -27634-4 0  9990
2 17795  65.8346  46.7332 0064912 144.8065  23.1374 13.59879073 30283

AllMySatでCOSMOS 1375 DEBをリアルタイム追跡

Download on the App Store